Terminal Aerodrome Forecast
Issued by NWS Twin Cities, MN

Home | Current Version | Previous Version | Text Only | Print | Product List | Glossary On
Versions: 1 2 3 4 5 6 7 8 9 10 11 12 13 14 15 16 17 18
000
FTUS43 KMPX 190500
TAFEAU
TAF
KEAU 190538Z 1906/2006 10008KT P6SM BKN150
     FM191100 15014KT P6SM FEW060 BKN100
     FM191800 17016G25KT P6SM BKN070
     FM192100 18015G23KT P6SM VCSH SCT035 OVC060
      TEMPO 1923/2002 5SM -SHRA OVC040
     FM200300 19008KT P6SM SCT060 BKN100=

USA.gov is the U.S. government's official web portal to all federal, state and local government web resources and services.